Starlink 30975

operational
NORAD ID: 58446 Int'l Des: 2023-183 Owner: SPXS Country: US Constellation: starlink
LEOCIRCULAR

Über Starlink 30975

Beschreibung wird geladen...

Live-Position

3D-Globus wird geladen...

Nächste Überflüge

Höhenverlauf

Altitude vs Time

uPlot chart will show altitude changes over time

Zweizeiliger Elementsatz

1 58446U 23183K 25305.60538458 .00000523 00000-0 53769-4 0 9992
2 58446 43.0036 19.5740 0001234 274.9414 85.1287 15.02534537107466
Epoch: 1. Nov. 2025 • Age: 13 hours

Aktueller Status

Höhe 558.4 km
Geschwindigkeit 7.58 km/s
Subsatellitenpunkt 4.10°N, 70.39°W
Startdatum 28. Nov. 2023
Alter 1.9 years
Typ internet

Technische Details

Klassifizierung Payload
Masse 730.00 kg
Trockenmasse 700.00 kg
Gesamtmasse 730.00 kg
Länge 0.30 m
Durchmesser 4.10 m
Spannweite 29.00 m
Form Box + pan
Hersteller SPXS
Bus-Typ Starlink V2M
Phasenstatus In Orbit
Besitzer/Staat SPXS/US

Große Konstellationen

Loading constellations...